SCP
0 0 0 0 -0 0 0 0 0 0 0 0 0 0 0 -0 -0 -0 -0 -0 0 -0 -0 -0 -0 -0 -0 -0 -0 -0 -0 -0
0 0 0 -0 -0 -0 0 0 0 0 0 0 -0 -0 0 -0 -1 -0 -0 -0 -0 -0 -0 -0 -0 -0 -0 -0 -0 -0 -0 -0
0 0 0 0 -0 -0 0 0 0 0 0 1 0 -0 -0 -0 -0 -0 -0 -0 -0 -0 -0 -0 -0 -0 -0 -0 -0 -0 -0 -0
0 0 0 0 0 -0 0 0 0 0 0 1 0 0 0 -0 -0 -0 -0 -0 -0 -0 -0 -0 -0 -0 -0 -0 -0 -0 -0 -0
0 0 0 -0 -0 0 0 0 0 0 0 1 0 0 0 0 0 -0 -0 0 0 -0 -0 -0 -0 -0 -0 -0 -0 -0 -0 -0
0 0 0 0 -0 0 0 0 0 0 0 0 1 0 0 0 0 0 -0 0 0 0 -0 -0 -0 -0 -0 -0 -0 -0 -0 -0
0 0 0 0 0 0 0 0 0 0 0 3 1 0 0 0 0 0 0 0 0 0 0 0 0 0 -0 -0 -0 -0 0 0
0 0 0 0 0 -0 0 0 0 0 0 2 2 1 0 0 0 0 0 0 0 0 0 0 0 0 0 0 0 0 0 0
0 0 0 0 0 -0 0 0 0 0 0 0 1 1 1 1 0 0 0 0 0 0 0 0 0 0 0 0 0 0 0 0
0 0 0 0 0 0 0 0 0 0 0 0 1 1 1 0 1 1 0 0 0 0 0 0 0 0 0 0 0 0 0 0
0 0 0 0 0 0 0 0 0 0 0 0 0 1 1 0 1 1 1 1 0 1 0 0 1 0 0 0 0 0 0 0
0 0 0 0 0 0 0 0 0 0 0 0 0 0 0 1 1 2 2 2 1 1 1 0 2 1 0 0 0 0 0 0
0 0 0 0 0 0 0 0 0 0 0 0 0 0 0 0 2 3 3 3 3 2 1 1 2 2 1 1 1 0 0 1
0 0 0 0 0 0 0 0 0 0 0 0 0 0 0 0 0 2 7 13 6 2 2 2 1 3 1 1 0 1 1 2
0 0 0 0 0 0 0 0 0 0 0 0 0 0 0 0 0 1 4 4 5 3 2 2 2 2 3 1 2 1 2 2
0 0 0 0 0 0 0 0 0 0 0 0 0 0 0 0 0 2 7 8 8 6 4 3 3 2 2 2 2 2 1 2
0 0 0 0 0 0 0 0 0 0 0 0 0 0 0 0 0 1 13 14 10 9 10 7 5 4 3 2 3 2 3 4
0 0 0 0 0 0 0 0 0 0 0 0 0 0 0 0 0 0 6 13 19 11 10 8 8 6 4 4 3 4 4 6
0 0 0 0 0 0 0 0 0 0 0 0 0 0 0 0 0 0 1 9 9 13 9 9 6 7 5 4 5 5 7 8
0 0 0 0 0 0 0 0 0 0 0 0 0 0 0 0 0 0 0 1 3 13 7 6 8 5 6 7 8 11 14 14
Wind_Speed_500mb
12 26 32 35 43 33 16 25 6 9 6 34 7 22 34 47 51 46 56 57 54 52 48 44 40 39 38 34 28 24 21 20
22 40 42 51 51 43 6 29 15 12 4 22 23 38 35 54 52 47 53 55 55 52 48 44 42 41 41 37 31 26 20 18
31 46 48 48 54 59 17 15 19 20 17 32 29 38 49 53 47 51 50 49 55 50 47 44 42 42 42 39 33 27 21 17
33 48 48 47 68 65 15 19 22 17 26 34 37 44 48 51 45 47 52 49 54 49 45 43 42 41 42 39 34 29 23 18
45 46 49 48 60 44 22 22 40 25 28 35 36 43 46 48 48 46 48 46 58 53 47 42 41 41 41 40 34 30 25 21
46 41 52 55 60 67 26 26 41 9 14 32 54 45 46 45 48 47 40 44 60 57 50 46 44 42 40 38 34 31 27 23
54 54 43 55 51 10 12 27 44 22 20 34 43 45 45 47 49 47 44 41 57 58 54 49 47 47 44 40 38 35 32 31
47 49 49 60 61 58 28 34 39 30 28 27 31 42 50 52 55 51 49 44 49 50 55 49 45 48 48 46 44 41 39 37
53 65 72 58 57 65 24 27 35 45 43 32 32 40 49 51 54 53 50 45 51 53 52 49 43 50 50 47 45 43 41 40
62 70 61 48 71 47 38 36 39 47 45 42 48 43 49 54 56 56 55 50 55 57 51 52 48 43 50 43 44 41 41 40
72 68 69 62 57 50 49 39 32 22 19 34 26 40 43 48 55 61 62 58 58 58 56 60 54 39 44 36 36 36 38 39
66 71 68 54 54 43 55 52 48 43 27 31 32 32 30 46 50 66 71 70 63 64 60 67 53 47 44 42 33 28 26 30
56 69 59 69 51 59 55 64 65 50 53 42 48 44 44 40 49 41 72 87 72 67 65 73 64 49 44 49 44 34 34 30
57 55 58 52 59 53 67 62 60 56 57 54 57 45 48 47 50 58 74 70 64 71 67 66 78 53 49 49 45 41 38 42
50 53 58 47 64 52 66 69 65 65 63 65 60 63 65 54 52 67 60 73 83 69 66 59 75 69 55 50 45 50 40 43
56 46 55 55 63 47 67 60 58 57 72 70 72 67 70 64 59 51 50 56 69 64 55 54 60 68 67 55 56 45 50 44
55 52 57 51 60 50 49 53 39 63 73 85 75 68 64 73 63 68 50 60 63 66 64 64 59 66 59 65 55 54 50 47
53 53 47 47 58 51 50 52 59 53 44 43 63 71 76 77 67 69 74 57 67 72 74 72 69 60 62 51 52 51 46 46
52 51 56 43 47 49 39 50 56 64 64 53 55 60 76 72 84 73 76 80 74 73 77 78 70 61 49 49 44 48 45 49
52 46 39 44 32 41 39 36 37 56 71 63 67 68 64 75 77 87 83 83 79 61 69 68 69 64 63 60 57 51 50 45
Wind_Direction_500mb
228 239 243 258 251 236 159 113 108 292 327 87 252 119 140 139 147 165 153 161 161 162 163 165 169 175 175 172 165 157 141 132
258 251 240 247 271 289 157 136 141 264 251 91 133 138 139 143 152 147 153 165 163 164 165 167 170 177 178 177 174 167 155 143
245 243 253 265 251 264 280 133 160 212 253 106 106 123 137 147 149 144 148 163 165 166 166 168 171 177 180 180 178 176 168 161
242 247 253 250 267 277 195 264 251 158 259 114 130 133 147 150 146 150 157 160 164 166 168 169 169 176 180 182 182 183 183 178
246 256 261 244 246 260 234 219 261 185 237 135 145 143 149 150 148 151 171 170 166 168 169 170 170 173 182 184 186 191 194 192
246 250 257 264 263 236 197 229 247 352 193 165 148 150 152 152 153 154 163 172 170 170 171 172 172 175 180 186 190 196 202 202
242 248 252 261 270 167 190 234 254 178 173 97 134 152 158 159 161 161 165 178 174 174 173 175 176 177 181 189 195 201 206 209
244 250 250 262 270 275 192 216 238 212 156 138 161 171 172 169 169 168 170 170 178 177 178 174 182 181 185 190 196 202 207 209
246 249 261 266 266 276 233 204 233 247 195 172 183 190 187 181 180 176 176 174 184 180 184 172 182 183 189 194 199 203 207 208
254 264 268 258 261 271 257 238 222 236 218 199 198 194 199 191 186 179 179 179 189 189 188 173 192 194 193 198 202 204 207 208
241 252 258 269 269 256 259 237 240 271 184 161 186 202 208 209 198 186 181 183 189 192 197 171 195 205 193 197 206 208 208 211
250 246 247 255 260 258 241 253 231 237 212 192 211 220 226 218 221 192 184 186 190 193 199 176 189 208 189 192 209 205 218 229
248 241 246 247 251 249 236 241 249 238 242 233 209 223 222 232 224 226 193 192 182 196 199 187 184 201 195 197 202 204 215 234
241 250 243 241 246 240 239 234 240 240 241 239 234 227 234 220 225 226 195 164 187 195 205 199 187 185 199 195 195 208 205 223
251 246 238 217 245 243 240 234 233 236 233 236 238 237 237 234 222 215 207 182 188 187 206 207 200 193 194 192 207 196 214 211
254 244 231 240 237 234 239 241 252 232 232 233 229 229 224 228 214 210 204 196 191 188 198 215 203 202 203 201 206 207 202 218
251 231 240 241 237 232 218 221 233 231 239 219 226 227 227 219 211 211 202 195 195 190 193 209 206 202 203 204 208 208 209 214
268 271 271 239 243 237 219 208 222 238 244 221 213 223 234 213 211 201 208 207 189 198 199 202 211 208 199 209 209 213 216 212
250 259 268 265 262 242 241 210 214 210 237 222 219 234 223 221 207 201 200 205 198 201 200 203 207 210 203 207 211 217 218 221
253 258 251 249 258 248 228 245 238 213 212 213 211 229 231 221 207 199 198 197 201 190 199 207 207 207 198 202 206 201 207 207
Wind_Speed_850mb
12 26 32 35 43 33 16 25 6 9 6 34 7 22 34 47 51 46 56 57 54 52 48 44 40 39 38 34 28 24 21 20
22 40 42 51 51 43 6 29 15 12 4 22 23 38 35 54 52 47 53 55 55 52 48 44 42 41 41 37 31 26 20 18
31 46 48 48 54 59 17 15 19 20 17 32 29 38 49 53 47 51 50 49 55 50 47 44 42 42 42 39 33 27 21 17
33 48 48 47 68 65 15 19 22 17 26 34 37 44 48 51 45 47 52 49 54 49 45 43 42 41 42 39 34 29 23 18
45 46 49 48 60 44 22 22 40 25 28 35 36 43 46 48 48 46 48 46 58 53 47 42 41 41 41 40 34 30 25 21
46 41 52 55 60 67 26 26 41 9 14 32 54 45 46 45 48 47 40 44 60 57 50 46 44 42 40 38 34 31 27 23
54 54 43 55 51 10 12 27 44 22 20 34 43 45 45 47 49 47 44 41 57 58 54 49 47 47 44 40 38 35 32 31
47 49 49 60 61 58 28 34 39 30 28 27 31 42 50 52 55 51 49 44 49 50 55 49 45 48 48 46 44 41 39 37
53 65 72 58 57 65 24 27 35 45 43 32 32 40 49 51 54 53 50 45 51 53 52 49 43 50 50 47 45 43 41 40
62 70 61 48 71 47 38 36 39 47 45 42 48 43 49 54 56 56 55 50 55 57 51 52 48 43 50 43 44 41 41 40
72 68 69 62 57 50 49 39 32 22 19 34 26 40 43 48 55 61 62 58 58 58 56 60 54 39 44 36 36 36 38 39
66 71 68 54 54 43 55 52 48 43 27 31 32 32 30 46 50 66 71 70 63 64 60 67 53 47 44 42 33 28 26 30
56 69 59 69 51 59 55 64 65 50 53 42 48 44 44 40 49 41 72 87 72 67 65 73 64 49 44 49 44 34 34 30
57 55 58 52 59 53 67 62 60 56 57 54 57 45 48 47 50 58 74 70 64 71 67 66 78 53 49 49 45 41 38 42
50 53 58 47 64 52 66 69 65 65 63 65 60 63 65 54 52 67 60 73 83 69 66 59 75 69 55 50 45 50 40 43
56 46 55 55 63 47 67 60 58 57 72 70 72 67 70 64 59 51 50 56 69 64 55 54 60 68 67 55 56 45 50 44
55 52 57 51 60 50 49 53 39 63 73 85 75 68 64 73 63 68 50 60 63 66 64 64 59 66 59 65 55 54 50 47
53 53 47 47 58 51 50 52 59 53 44 43 63 71 76 77 67 69 74 57 67 72 74 72 69 60 62 51 52 51 46 46
52 51 56 43 47 49 39 50 56 64 64 53 55 60 76 72 84 73 76 80 74 73 77 78 70 61 49 49 44 48 45 49
52 46 39 44 32 41 39 36 37 56 71 63 67 68 64 75 77 87 83 83 79 61 69 68 69 64 63 60 57 51 50 45
Wind_Direction_850mb
228 239 243 258 251 236 159 113 108 292 327 87 252 119 140 139 147 165 153 161 161 162 163 165 169 175 175 172 165 157 141 132
258 251 240 247 271 289 157 136 141 264 251 91 133 138 139 143 152 147 153 165 163 164 165 167 170 177 178 177 174 167 155 143
245 243 253 265 251 264 280 133 160 212 253 106 106 123 137 147 149 144 148 163 165 166 166 168 171 177 180 180 178 176 168 161
242 247 253 250 267 277 195 264 251 158 259 114 130 133 147 150 146 150 157 160 164 166 168 169 169 176 180 182 182 183 183 178
246 256 261 244 246 260 234 219 261 185 237 135 145 143 149 150 148 151 171 170 166 168 169 170 170 173 182 184 186 191 194 192
246 250 257 264 263 236 197 229 247 352 193 165 148 150 152 152 153 154 163 172 170 170 171 172 172 175 180 186 190 196 202 202
242 248 252 261 270 167 190 234 254 178 173 97 134 152 158 159 161 161 165 178 174 174 173 175 176 177 181 189 195 201 206 209
244 250 250 262 270 275 192 216 238 212 156 138 161 171 172 169 169 168 170 170 178 177 178 174 182 181 185 190 196 202 207 209
246 249 261 266 266 276 233 204 233 247 195 172 183 190 187 181 180 176 176 174 184 180 184 172 182 183 189 194 199 203 207 208
254 264 268 258 261 271 257 238 222 236 218 199 198 194 199 191 186 179 179 179 189 189 188 173 192 194 193 198 202 204 207 208
241 252 258 269 269 256 259 237 240 271 184 161 186 202 208 209 198 186 181 183 189 192 197 171 195 205 193 197 206 208 208 211
250 246 247 255 260 258 241 253 231 237 212 192 211 220 226 218 221 192 184 186 190 193 199 176 189 208 189 192 209 205 218 229
248 241 246 247 251 249 236 241 249 238 242 233 209 223 222 232 224 226 193 192 182 196 199 187 184 201 195 197 202 204 215 234
241 250 243 241 246 240 239 234 240 240 241 239 234 227 234 220 225 226 195 164 187 195 205 199 187 185 199 195 195 208 205 223
251 246 238 217 245 243 240 234 233 236 233 236 238 237 237 234 222 215 207 182 188 187 206 207 200 193 194 192 207 196 214 211
254 244 231 240 237 234 239 241 252 232 232 233 229 229 224 228 214 210 204 196 191 188 198 215 203 202 203 201 206 207 202 218
251 231 240 241 237 232 218 221 233 231 239 219 226 227 227 219 211 211 202 195 195 190 193 209 206 202 203 204 208 208 209 214
268 271 271 239 243 237 219 208 222 238 244 221 213 223 234 213 211 201 208 207 189 198 199 202 211 208 199 209 209 213 216 212
250 259 268 265 262 242 241 210 214 210 237 222 219 234 223 221 207 201 200 205 198 201 200 203 207 210 203 207 211 217 218 221
253 258 251 249 258 248 228 245 238 213 212 213 211 229 231 221 207 199 198 197 201 190 199 207 207 207 198 202 206 201 207 207